Location: Waldport
(44.4270°N, 124.0680°W)
Time: 08:00:39
(UTC-07:00)

KORONAS-FOTON - Pass Details

Date: 23 June 2018
Orbit: 508 x 533 km, 82.4° (Epoch: 23 September)

Event Time Altitude Azimuth Distance (km) Brightness Sun altitude
Exits shadow 22:17:43 - 182° (S) 1,984 6.3 -10.6°
Reaches altitude 10° 22:18:15 10° 181° (S) 1,765 6.1 -10.6°
Maximum altitude 22:22:07 74° 97° (E) 557 3.8 -11.1°
Drops below altitude 10° 22:26:03 10° 12° (NNE) 1,791 7.1 -11.5°
Sets 22:28:13 0° 11° (N) 2,688 8.1 -11.8°
